Skip Page Navigation
NASA JPL Caltech
NASA Logo - Jet Propulsion Laboratory + View the NASA Portal
+ Center for Near-Earth Object Studies
JPL Home Earth Solar System Stars & Galaxies Technology
JPL Solar System Dynamics
BODIES ORBITS EPHEMERIDES TOOLS PHYSICAL DATA DISCOVERY FAQ SITE MAP
JPL Small-Body Database Browser
Search: [ help ]  
(2016 BQ)
Classification: Apollo [NEO]          SPK-ID: 3740664
Ephemeris | Orbit Diagram | Orbital Elements | Mission Design | Physical Parameters | Close-Approach Data ]

[ show orbit diagram ]
Orbital Elements at Epoch 2459396.5 (2021-Jul-01.0) TDB
Reference: JPL 7 (heliocentric ecliptic J2000)
 Element Value Uncertainty (1-sigma)   Units 
e .139663154927156 0.00020788  
a 1.010900770964518 2.7047e-05 au
q .869715179973319 0.0001869 au
i 2.441572447962676 0.0036302 deg
node 307.07092024 0.00061956 deg
peri 277.03312378078 0.016271 deg
M 38.2949513014072 0.081682 deg
tp 2459357.008808303081
(2021-May-22.50880830)
0.082648 TDB
period 371.2455174311277
1.02
0.014899
4.079e-05
d
yr
n .9697086782112759 3.8918e-05 deg/d
Q 1.152086361955717 3.0825e-05 au
  Orbit Determination Parameters
   # obs. used (total)      40  
   data-arc span      20 days  
   first obs. used      2016-01-18  
   last obs. used      2016-02-07  
   planetary ephem.      DE441  
   SB-pert. ephem.      SB441-N16  
   condition code      6  
   norm. resid. RMS      .49187  
   source      ORB  
   producer      Otto Matic  
   solution date      2021-Apr-15 16:04:28  

Additional Information
 Earth MOID = .00659423 au 
 Jupiter MOID = 3.81775 au 
 T_jup = 6.019 
[ show covariance matrix ]

Ephemeris | Orbit Diagram | Orbital Elements | Mission Design | Physical Parameters | Close-Approach Data ]

Physical Parameter Table
Parameter Symbol Value Units Sigma Reference Notes
absolute magnitude H 26.8   n/a MPO365062  

[ show close-approach data ]
Ephemeris | Orbit Diagram | Orbital Elements | Mission Design | Physical Parameters | Close-Approach Data ]
ABOUT SSD CREDITS/AWARDS PRIVACY/COPYRIGHT GLOSSARY LINKS
FirstGov 2021-Jul-31 04:11 UT
(server date/time)  
NASA Home Page
Site Manager:   Ryan S. Park
Webmaster  Alan B. Chamberlin